sat.trackr.live / text

‹ back to catalog

QIANFAN-97

NORAD 66039 · 2025-233G

PAYLOAD ACTIVE UNKNOWN

§ Identity

Operator
Country
PRC
Launch date
2025-10-17
Launch site
TAISC
Launch vehicle
Mass (kg)
RCS (m²)

External: N2YO · Heavens-Above · Gunter

§ Orbital elements

Epoch: 2026-09-20T09:32:54.960576Z

Period
106.58 min
Inclination
89.0059°
Eccentricity
0.0001817
Mean motion
13.51038945 rev/d
Perigee alt
1,067.1 km
Apogee alt
1,069.8 km
Semi-major
7,446.6 km
B*
4.6353e-5
RAAN
33.5676°
Arg perigee
94.2793°
Mean anomaly
265.8566°
Rev number
4,603

§ Raw data

QIANFAN-971 66039U 25233G   26263.39785834  .00000042  00000+0  46353-4 0  99952 66039  89.0059  33.5676 0001817  94.2793 265.8566 13.51038945 46038

JSON: /api/v1/satellites/66039 · /tle

For live sub-satellite position, see the globe view (requires WebGL).

§ Visibility from observer

Set your observer location to see the next 7 days of passes ≥ 10°. The values pass through the URL so the page stays shareable.

No JS? Fill the form by hand. The geolocation button needs JavaScript.